Preview of NWS' New Version of Forecast
This preview is not operational and should not be used for support decisions.

Regional Weather Roundup (RWR)

Issued by National Weather Service (NWS)

                            
000
ASUS43 KDMX 161406
RWRIA 

WEATHER ROUNDUP FOR IOWA
NATIONAL WEATHER SERVICE DES MOINES IA
900 AM CDT MON SEP 16 2019

NOTE: "FAIR" INDICATES FEW OR NO CLOUDS BELOW 12,000 FEET WITH NO
SIGNIFICANT WEATHER AND/OR OBSTRUCTIONS TO VISIBILITY.

* - THESE STATIONS ARE NOT NWS STATIONS...THUS NOT UNDER NWS
QUALITY CONTROL.  THEY ALSO DO NOT REPORT WEATHER SUCH 
AS PRECIPITATION OR FOG.  

IAZ001>003-012>014-020>022-031>034-043>046-161500-
   NORTHWEST IOWA
  
CITY           SKY/WX    TMP DP  RH WIND       PRES   REMARKS
CARROLL *      SUNNY     72  70  94 SE5       30.06R                  
CHEROKEE *     SUNNY     72  70  94 S8        30.03S                  
DENISON *      SUNNY     75  72  88 S8        30.06S                  
LE MARS *      SUNNY     73  70  88 S9        30.00S                  
SHELDON *      SUNNY     72  70  94 SE10      30.00S                  
SIOUX CITY     SUNNY     70  67  90 SE12      30.00R                  
SPENCER        SUNNY     73  69  87 S13       30.03S                  
STORM LAKE *   SUNNY     70  70 100 S8        30.02S                  
$$
 
IAZ055>058-069>071-079>083-090>094-161500-
   SOUTHWEST IOWA
  
CITY           SKY/WX    TMP DP  RH WIND       PRES   REMARKS
ATLANTIC *     SUNNY     73  73 100 S6        30.06S                  
AUDUBON *        N/A     72  70  94 S6        30.08S                  
CLARINDA *     SUNNY     72  72 100 S6        30.09S                  
COUNCIL BLFS * SUNNY     73  72  94 S7        30.04S                  
CRESTON *      SUNNY     73  72  94 S5        30.09S                  
HARLAN  *      SUNNY     72  72 100 S3        30.06R                  
LAMONI         SUNNY     75  71  87 S5        30.11R                  
RED OAK *      SUNNY     73  72  94 S3        30.07R                  
SHENANDOAH *   SUNNY     73  70  88 S6        30.06R                  
$$
 
IAZ047>049-059>061-072>074-084-161500-
   CENTRAL IOWA
  
CITY           SKY/WX    TMP DP  RH WIND       PRES   REMARKS
AMES           FOG       70  70 100 SE6       30.08S VSB 1/4          
ANKENY *       SUNNY     72  72 100 SE8       30.09R                  
BOONE *        SUNNY     72  72 100 SE9       30.08R                  
CHARITON *     MOSUNNY   73  73 100 S5        30.09S                  
DES MOINES     PTSUNNY   73  69  87 SE8       30.07S                  
GRINNELL*      FOG       70  69  98 E7        30.12S VSB 1/4          
KNOXVILLE *      N/A     73  73 100 SE6       30.09S                  
MARSHALLTOWN   FOG       70  70 100 SE10      30.10R VSB 1/2          
NEWTON *       CLOUDY    72  72 100 SE6       30.10R FOG              
PELLA *        FOG       71  69  95 SE6       30.11R VSB 1/2          
PERRY *        FAIR      73  72  99 SE6       30.07S                  
$$
 
IAZ004>006-015-016-023>025-035-036-161500-
   NORTH CENTRAL IOWA
  
CITY           SKY/WX    TMP DP  RH WIND       PRES   REMARKS
ALGONA *       SUNNY     70  70 100 SE12      30.05F                  
CLARION *      SUNNY     72  72 100 SE9G17    30.08S                  
ESTHERVILLE    SUNNY     70  68  93 S14G24    30.04S                  
FORT DODGE *   SUNNY     74  70  87 SE8       30.07F                  
MASON CITY     FOG       67  66  97 SE9       30.11S VSB<1/4          
FOREST CITY *  FOG       68  68 100 SE8       30.09S VSB 1/4          
IOWA FALLS *   DRZL/FOG  68  65  89 SE8       30.11S VSB<1/4          
$$

IAZ007>011-017>019-026>030-037>042-050>054-066-161500-
   NORTHEAST IOWA
  
CITY           SKY/WX    TMP DP  RH WIND       PRES   REMARKS
CEDAR RAPIDS   FAIR      68  68 100 E10       30.12S                  
CHARLES CITY * FAIR      68  66  94 SE8       30.11S                  
CLINTON *      FOG       67  67 100 E6        30.15R VSB 3/4          
DECORAH *      FAIR      66  66 100 SE6       30.12S                  
DUBUQUE        FAIR      67  67 100 S3        30.16R                  
MONTICELLO *   FAIR      66  66 100 CALM      30.14R                  
OELWEIN *      SUNNY     66  66 100 SE7       30.13S                  
WATERLOO       FAIR      70  66  87 SE8       30.11R                  
$$
 
IAZ064-065-067-068-078-161500-
   EAST CENTRAL IOWA
  
CITY           SKY/WX    TMP DP  RH WIND       PRES   REMARKS
DAVENPORT      FAIR      70  67  90 E5        30.15R FOG              
IOWA CITY      FAIR      73  67  81 E6        30.13S                  
MUSCATINE *    CLOUDY    70  70 100 NE7       30.13R FOG              
QUAD CITIES    PTSUNNY   72  68  87 E6        30.13R                  
$$
 
IAZ062-063-075>077-085>089-095>099-161500-
   SOUTHEAST IOWA
  
CITY           SKY/WX    TMP DP  RH WIND       PRES   REMARKS
BURLINGTON     CLOUDY    72  70  93 E6        30.11S FOG              
FAIRFIELD *    FOG       72  72 100 E7        30.12R VSB 0            
FORT MADISON * FOG       73  73 100 CALM      30.12S VSB 1            
KEOKUK *       SUNNY     75  73  94 NE3       30.11R                  
OSKALOOSA *    FOG       71  69  95 E5        30.12R VSB 1/4          
CENTERVILLE *  FAIR      75  75 100 CALM      30.12R                  
OTTUMWA        CLOUDY    72  71  97 E9        30.11R FOG              
WASHINGTON *     N/A    N/A N/A N/A MISG        N/A                   
$$

ABBREVIATIONS USED IN REMARKS
   TC - TEMPERATURES IN CELSIUS
  WCI - WIND CHILL INDEX
   HX - HEAT INDEX
  VSB - VISIBILITY  
$$